Regional Weather Roundup
Issued by NWS

Home | Current Version | Previous Version | Text Only | Print | Product List | Glossary On
Versions: 1 2 3 4 5 6 7 8 9 10 11 12 13 14 15 16 17 18 19 20 21 22 23 24 25 26 27 28 29 30 31 32 33 34 35 36 37 38 39 40 41 42 43 44 45 46 47 48 49 50
000
ASUS45 KPSR 310810
RWRAZ

ARIZONA REGIONAL HOURLY WEATHER ROUNDUP
NATIONAL WEATHER SERVICE PHOENIX AZ
100 AM MST FRI OCT 31 2014

NOTE: FAIR INDICATES FEW OR NO CLOUDS BELOW 12,000 FEET WITH NO
SIGNIFICANT WEATHER AND/OR OBSTRUCTIONS TO VISIBILITY.

AZZ001>003-036-310900-
NORTHWEST ARIZONA

CITY           SKY/WX    TMP DP  RH WIND       PRES   REMARKS
BULLHEAD CITY  MOCLDY    72  36  26 CALM      29.90F
KINGMAN        CLOUDY    65  33  30 CALM      30.04F
$$

AZZ004>008-015-016-018-310900-
NORTH CENTRAL ARIZONA

CITY           SKY/WX    TMP DP  RH WIND       PRES   REMARKS
GRAND CANYON   PTCLDY    29  15  56 CALM      30.26F
PRESCOTT       MOCLDY    49  31  49 S7        30.16F
FLAGSTAFF      PTCLDY    33  21  61 CALM      30.28F
PAYSON         CLEAR     55  32  41 CALM      30.21S
PAGE           PTCLDY    52  22  30 CALM      30.16S
$$

AZZ009>014-017-310900-
NORTHEAST ARIZONA

CITY           SKY/WX    TMP DP  RH WIND       PRES   REMARKS
WINSLOW        PTCLDY    47  31  53 VRB6      30.21S
SAINT JOHNS    MOCLDY    46  27  47 CALM      30.25S
WINDOW ROCK    MOCLDY    36  14  40 CALM      30.33S
SHOW LOW       CLEAR     50  28  43 S14       30.29F
$$

AZZ023-310900-
GREATER PHOENIX AREA

CITY           SKY/WX    TMP DP  RH WIND       PRES   REMARKS
PHOENIX        MOCLDY    73  49  42 CALM      29.91S
BUCKEYE          N/A     66  39  37 CALM      29.91F
LUKE AFB       MOCLDY    67  42  39 N7        29.90F
DEER VALLEY    MOCLDY    70  35  27 CALM      29.93S
SCOTTSDALE     MOCLDY    69  44  40 CALM      29.94S
MESA-GATEWAY   MOCLDY    66  39  37 E7        29.95S
$$

AZZ027-028-310900-
SOUTHWEST MARICOPA COUNTY AND PINAL COUNTY

CITY           SKY/WX    TMP DP  RH WIND       PRES   REMARKS
CASA GRANDE    MOCLDY    64  43  45 CALM      29.94F
$$

AZZ503-504-507>509-310900-
SOUTHEAST ARIZONA

CITY           SKY/WX    TMP DP  RH WIND       PRES   REMARKS
TUCSON         PTCLDY    69  42  37 SE6       30.04S
DAVIS-MONTHAN  MOCLDY    67  39  36 SE5       30.02S
NOGALES        PTCLDY    56  42  59 NE5       30.10S
SIERRA VISTA   PTCLDY    63  39  42 SE12      30.15F
DOUGLAS        CLEAR     58  38  47 W5        30.13F
SAFFORD        CLEAR     64  32  30 SE9       30.10S
$$

AZZ020-021-025-026-031-310900-
SOUTHWEST ARIZONA

CITY           SKY/WX    TMP DP  RH WIND       PRES   REMARKS
YUMA           PTCLDY    69  39  33 S8        29.87F
$$

CAZ031-033-041-043-047-048-061-310900-
SOUTHERN CALIFORNIA

CITY           SKY/WX    TMP DP  RH WIND       PRES   REMARKS
DOWNTOWN L.A.  PTCLDY    65  59  81 CALM      29.96S
L.A. AIRPORT   PTCLDY    65  61  87 CALM      29.96F
SAN DIEGO      PTCLDY    68  61  77 CALM      29.98S
BURBANK        CLEAR     63  58  83 CALM      29.97R
ONTARIO        PTCLDY    61  55  81 CALM      29.97F
RIVERSIDE      CLEAR     61  56  83 SW3       29.97F
PALM SPRINGS   PTCLDY    71  45  39 CALM      29.89F
EL CENTRO NAS  CLEAR     66  39  37 SW6       29.85S
IMPERIAL       CLEAR     67  43  41 W6        29.85S
BLYTHE         MOCLDY    68  34  28 N6        29.88S
NEEDLES        MOCLDY    69  28  21 NW8       29.90S
$$

NVZ020-UTZ003-310900-
SOUTHERN NEVADA-UTAH

CITY           SKY/WX    TMP DP  RH WIND       PRES   REMARKS
LAS VEGAS      CLOUDY    68  28  22 SW7       29.92F
SALT LAKE CITY MOCLDY    52  30  43 S10       30.07F
$$

NMZ009-TXZ055-310900-
NEW MEXICO-WEST TEXAS

CITY           SKY/WX    TMP DP  RH WIND       PRES   REMARKS
ALBUQUERQUE    CLEAR     56  24  29 E17       30.33S
EL PASO        PTCLDY    62  38  40 NE5       30.26S
$$


........................KEY........................
SKY/WX - SKY CONDITION/WEATHER
TMP    - TEMPERATURE IN FAHRENHEIT
DP     - DEW POINT IN FAHRENHEIT
RH     - RELATIVE HUMIDITY IN PERCENT
WIND   - DIRECTION AND SPEED IN MILES PER HOUR (MPH)
VRB    - VARIABLE WIND DIRECTION
PRES   - MEAN SEA LEVEL PRESSURE IN INCHES OF MERCURY
         F - FALLING PRESSURE   R - RISING PRESSURE
         S - STEADY PRESSURE
VSB    - VISIBILITY IN MILES
HX     - HEAT INDEX IN FAHRENHEIT
WCI    - WIND CHILL INDEX IN FAHRENHEIT
TC     - TEMPERATURE IN CELSIUS WHICH IS ALSO KNOWN AS
         TEMPERATURE IN CENTIGRADE
AFB    - AIR FORCE BASE
         LUKE AFB IS LUKE AIR FORCE BASE
         DAVIS-MONTHAN IS DAVIS-MONTHAN AIR FORCE BASE
NAS    - NAVAL AIR STATION
         EL CENTRO NAS IS EL CENTRO NAVAL AIR STATION
N/A    - NOT AVAILABLE



USA.gov is the U.S. government's official web portal to all federal, state and local government web resources and services.